Watford City, ND

2:18 AM CST on December 10, 2019 (GMT -0600)
Watford City

Weather History for KS25 - October, 2019

Change the Weather History Date:

Friday, October 18, 2019

  Actual Average (WUND) Record (WUND)
Temperature  
Mean Temperature 48 °F -  
Max Temperature 60 °F - - (-1)
Min Temperature 37 °F - - (-1)
Degree Days  
Heating Degree Days 16    
Moisture  
Dew Point 35 °F    
Average Humidity 62    
Maximum Humidity 100    
Minimum Humidity 34    
Precipitation  
Precipitation 0.00 in - - ()
Sea Level Pressure  
Sea Level Pressure 29.49 in    
Wind  
Wind Speed 9 mph (West)    
Max Wind Speed 21 mph    
Max Gust Speed 29 mph    
Visibility 10 miles    
Events      
Averages and records for this station are not official NWS values.
T = Trace of Precipitation, MM = Missing Value Source: NWS Daily Summary

Daily Weather History Graph

Daily Weather History Graph

Search for Another Location

Airport or City:

Astronomy

Oct. 18, 2019 Rise Set
Actual Time 8:16 AM CDT 6:59 PM CDT
Civil Twilight 7:44 AM CDT 7:30 PM CDT
Nautical Twilight 7:09 AM CDT 8:06 PM CDT
Astronomical Twilight 6:33 AM CDT 8:42 PM CDT
Moon 10:00 PM CDT (10/18) 1:08 PM CDT (10/18)
Length of Visible Light 11h 45m
Length of Day
10h 43m
Waning Gibbous, 78% of the Moon is Illuminated
Oct 18
Waning Gibbous
Oct 21
Last Quarter
Oct 27
New
Nov 4
First Quarter
Nov 12
Full

Hourly Weather History & Observations

Time (CDT) Temp. Windchill Dew Point Humidity Pressure Visibility Wind Dir Wind Speed Gust Speed Precip Events Conditions
12:15 AM 42.8 °F 40.1 °F 41.0 °F 93% 29.38 in 10.0 mi SE 4.6 mph - N/A   Clear
12:35 AM 42.8 °F - 41.0 °F 93% 29.39 in 10.0 mi Calm Calm - N/A   Clear
12:55 AM 41.0 °F - 41.0 °F 100% 29.38 in 10.0 mi Calm Calm - N/A   Clear
1:15 AM 39.2 °F - 39.2 °F 100% 29.38 in 10.0 mi Calm Calm - N/A   Clear
1:35 AM 41.0 °F - 41.0 °F 100% 29.38 in 10.0 mi Calm Calm - N/A   Clear
1:55 AM 37.4 °F 33.8 °F 37.4 °F 100% 29.39 in 10.0 mi West 4.6 mph - N/A   Clear
2:15 AM 39.2 °F 35.0 °F 39.2 °F 100% 29.39 in 10.0 mi WSW 5.8 mph - N/A   Clear
2:35 AM 39.2 °F 33.0 °F 39.2 °F 100% 29.39 in 10.0 mi SW 9.2 mph - N/A   Clear
2:55 AM 42.8 °F 41.1 °F 41.0 °F 93% 29.39 in 10.0 mi SW 3.5 mph - N/A   Clear
3:15 AM 46.4 °F 41.1 °F 41.0 °F 81% 29.40 in 10.0 mi WNW 11.5 mph - N/A   Clear
3:35 AM 48.2 °F - 39.2 °F 71% 29.40 in 10.0 mi NW 10.4 mph - N/A   Clear
3:55 AM 48.2 °F - 37.4 °F 66% 29.41 in 10.0 mi WNW 10.4 mph 19.6 mph N/A   Clear
4:15 AM 48.2 °F - 37.4 °F 66% 29.41 in 10.0 mi NW 9.2 mph - N/A   Clear
4:35 AM 46.4 °F 41.9 °F 37.4 °F 71% 29.43 in 10.0 mi WNW 9.2 mph - N/A   Clear
4:55 AM 46.4 °F 40.7 °F 37.4 °F 71% 29.43 in 10.0 mi West 12.7 mph - N/A   Clear
5:15 AM 46.4 °F 41.5 °F 37.4 °F 71% 29.44 in 10.0 mi West 10.4 mph - N/A   Clear
5:35 AM 46.4 °F 41.9 °F 37.4 °F 71% 29.45 in 10.0 mi West 9.2 mph - N/A   Clear
5:55 AM 44.6 °F 37.4 °F 37.4 °F 76% 29.46 in 10.0 mi West 16.1 mph - N/A   Clear
6:15 AM 44.6 °F 38.4 °F 37.4 °F 76% 29.47 in 10.0 mi West 12.7 mph - N/A   Clear
6:35 AM 44.6 °F 39.2 °F 37.4 °F 76% 29.48 in 10.0 mi West 10.4 mph - N/A   Clear
6:55 AM 46.4 °F 40.4 °F 35.6 °F 66% 29.48 in 10.0 mi West 13.8 mph - N/A   Clear
7:15 AM 44.6 °F 40.2 °F 37.4 °F 76% 29.49 in 10.0 mi WSW 8.1 mph - N/A   Clear
7:35 AM 42.8 °F 38.6 °F 37.4 °F 81% 29.49 in 10.0 mi WSW 6.9 mph - N/A   Clear
7:55 AM 42.8 °F 38.0 °F 37.4 °F 81% 29.49 in 10.0 mi WSW 8.1 mph - N/A   Clear
8:15 AM 44.6 °F 40.7 °F 37.4 °F 76% 29.49 in 10.0 mi WSW 6.9 mph - N/A   Clear
8:35 AM 44.6 °F 40.2 °F 37.4 °F 76% 29.49 in 10.0 mi WSW 8.1 mph - N/A   Clear
8:55 AM 44.6 °F 40.2 °F 37.4 °F 76% 29.50 in 10.0 mi SW 8.1 mph - N/A   Clear
9:15 AM 46.4 °F 41.1 °F 37.4 °F 71% 29.51 in 10.0 mi WSW 11.5 mph - N/A   Clear
9:35 AM 46.4 °F 42.9 °F 37.4 °F 71% 29.50 in 10.0 mi West 6.9 mph - N/A   Partly Cloudy
9:55 AM 48.2 °F - 37.4 °F 66% 29.50 in 10.0 mi West 10.4 mph - N/A   Clear
10:15 AM 50.0 °F - 37.4 °F 62% 29.50 in 10.0 mi West 8.1 mph - N/A   Clear
10:35 AM 50.0 °F - 35.6 °F 58% 29.50 in 10.0 mi West 11.5 mph 20.7 mph N/A   Partly Cloudy
10:55 AM 50.0 °F - 33.8 °F 54% 29.51 in 10.0 mi West 16.1 mph - N/A   Clear
11:15 AM 50.0 °F - 33.8 °F 54% 29.50 in 10.0 mi WNW 15.0 mph 20.7 mph N/A   Partly Cloudy
11:35 AM 50.0 °F - 33.8 °F 54% 29.50 in 10.0 mi West 13.8 mph - N/A   Clear
11:55 AM 50.0 °F - 33.8 °F 54% 29.50 in 10.0 mi West 13.8 mph - N/A   Clear
12:15 PM 51.8 °F - 33.8 °F 50% 29.50 in 10.0 mi West 13.8 mph - N/A   Clear
12:35 PM 51.8 °F - 33.8 °F 50% 29.50 in 10.0 mi West 13.8 mph 21.9 mph N/A   Clear
12:55 PM 51.8 °F - 33.8 °F 50% 29.50 in 10.0 mi West 16.1 mph - N/A   Partly Cloudy
1:15 PM 55.4 °F - 35.6 °F 47% 29.50 in 10.0 mi West 17.3 mph - N/A   Partly Cloudy
1:35 PM 53.6 °F - 33.8 °F 47% 29.50 in 10.0 mi West 16.1 mph 23.0 mph N/A   Clear
1:55 PM 53.6 °F - 33.8 °F 47% 29.50 in 10.0 mi West 16.1 mph - N/A   Clear
2:15 PM 55.4 °F - 33.8 °F 44% 29.51 in 10.0 mi West 13.8 mph - N/A   Clear
2:35 PM 55.4 °F - 33.8 °F 44% 29.50 in 10.0 mi West 15.0 mph - N/A   Clear
2:55 PM 57.2 °F - 33.8 °F 41% 29.50 in 9.0 mi WNW 16.1 mph 24.2 mph N/A   Clear
3:15 PM 57.2 °F - 33.8 °F 41% 29.50 in 10.0 mi West 18.4 mph - N/A   Clear
3:35 PM 57.2 °F - 33.8 °F 41% 29.50 in 10.0 mi West 16.1 mph 21.9 mph N/A   Clear
3:55 PM 59.0 °F - 32.0 °F 36% 29.49 in 10.0 mi WNW 19.6 mph - N/A   Clear
4:15 PM 57.2 °F - 32.0 °F 38% 29.50 in 10.0 mi WNW 13.8 mph 23.0 mph N/A   Clear
4:35 PM 59.0 °F - 32.0 °F 36% 29.50 in 9.0 mi West 20.7 mph 28.8 mph N/A   Clear
4:55 PM 57.2 °F - 33.8 °F 41% 29.51 in 10.0 mi West 12.7 mph 20.7 mph N/A   Clear
5:15 PM 60.8 °F - 33.8 °F 36% 29.51 in 10.0 mi West 17.3 mph - N/A   Clear
5:35 PM 60.8 °F - 32.0 °F 34% 29.51 in 10.0 mi West 19.6 mph 25.3 mph N/A   Scattered Clouds
5:55 PM 59.0 °F - 32.0 °F 36% 29.52 in 10.0 mi West 17.3 mph 27.6 mph N/A   Partly Cloudy
6:15 PM 57.2 °F - 32.0 °F 38% 29.52 in 10.0 mi West 17.3 mph - N/A   Scattered Clouds
6:35 PM 57.2 °F - 32.0 °F 38% 29.53 in 10.0 mi West 13.8 mph 23.0 mph N/A   Mostly Cloudy
6:55 PM 55.4 °F - 32.0 °F 41% 29.53 in 10.0 mi West 12.7 mph - N/A   Partly Cloudy
7:15 PM 51.8 °F - 32.0 °F 47% 29.54 in 10.0 mi West 11.5 mph - N/A   Clear
7:35 PM 50.0 °F - 32.0 °F 50% 29.55 in 10.0 mi West 9.2 mph - N/A   Clear
7:55 PM 48.2 °F - 32.0 °F 54% 29.55 in 10.0 mi West 8.1 mph - N/A   Clear
8:15 PM 44.6 °F 40.7 °F 32.0 °F 61% 29.55 in 10.0 mi SW 6.9 mph - N/A   Clear
8:35 PM 44.6 °F 40.7 °F 32.0 °F 61% 29.56 in 10.0 mi SW 6.9 mph - N/A   Partly Cloudy
8:55 PM 44.6 °F 40.7 °F 32.0 °F 61% 29.56 in 10.0 mi WSW 6.9 mph - N/A   Scattered Clouds
9:15 PM 42.8 °F 38.6 °F 32.0 °F 66% 29.56 in 10.0 mi SW 6.9 mph - N/A   Scattered Clouds
9:35 PM 42.8 °F 38.0 °F 32.0 °F 66% 29.57 in 10.0 mi SW 8.1 mph - N/A   Partly Cloudy
9:55 PM 42.8 °F 38.0 °F 32.0 °F 66% 29.57 in 10.0 mi WSW 8.1 mph - N/A   Clear
10:15 PM 48.2 °F - 32.0 °F 54% 29.57 in 10.0 mi West 11.5 mph - N/A   Scattered Clouds
10:35 PM 48.2 °F - 32.0 °F 54% 29.57 in 10.0 mi West 11.5 mph - N/A   Scattered Clouds
10:55 PM 48.2 °F - 32.0 °F 54% 29.58 in 10.0 mi West 12.7 mph - N/A   Mostly Cloudy
11:15 PM 46.4 °F 41.1 °F 32.0 °F 57% 29.58 in 10.0 mi West 11.5 mph - N/A   Partly Cloudy
11:35 PM 46.4 °F 41.9 °F 30.2 °F 53% 29.58 in 10.0 mi West 9.2 mph - N/A   Clear
11:55 PM 44.6 °F 39.7 °F 30.2 °F 57% 29.59 in 10.0 mi WSW 9.2 mph - N/A   Clear